Вернуться в каталог

FREGAT DEB

LostUNKNOWN
NORAD 46004·DEBRIS·🇷🇺 Russia

Запущен Jul 18, 2011 с Baikonur Cosmodrome

Loading…

Ближайшие Пролёты (ближайшие 24 часа)

TLE

УстаревшееSource: Space-Track

Эпоха: Mar 26, 2022, 05:17 UTC

1 46004U 11037HF  22085.22026129 -.00045308  00000-0 -73340+0 0  9995
2 46004  50.9212 140.5594 1541295 312.1698  35.7795 10.15373096 62043

Отслеживайте FREGAT DEB в реальном времени с AllMySat

Download on the App Store